Stumm im Zillertal
Wetterdaten: aktuell Dienstag, 29.11.2022 11:48
Datum Zeit Temp. Auen Feuchte A. Luftdruck Regen Wind Richtung Richtung Sonnenschein ET UV Solar Taupunkt Windchill Windben
29.11.2022 11:48 3,3 C 65 % 1019,3 hPa 0,4 l/m 0,0 km/h N-NO 26 0 min 0,026 mm 0,6 UV-I 124 W/m -2,6 C 3,3 C 0,0 km/h
29.11.2022 10:48 3,2 C 65 % 1019,6 hPa 0,8 l/m 0,0 km/h N-NO 26 0 min 0,025 mm 0,5 UV-I 78 W/m -2,7 C 3,2 C 0,0 km/h
29.11.2022 09:50 3,2 C 65 % 1019,4 hPa 0,8 l/m 0,0 km/h N-NO 26 0 min 0,000 mm 0,0 UV-I 42 W/m -2,7 C 3,2 C 0,0 km/h
29.11.2022 08:52 3,1 C 65 % 1019,2 hPa 0,8 l/m 0,0 km/h N-NO 26 0 min 0,000 mm 0,0 UV-I 21 W/m -2,8 C 3,1 C 0,0 km/h
29.11.2022 07:55 3,2 C 65 % 1019,0 hPa 1,0 l/m 0,0 km/h N-NO 26 0 min 0,026 mm 0,0 UV-I 3 W/m -2,7 C 3,2 C 0,0 km/h
29.11.2022 06:58 3,3 C 65 % 1018,9 hPa 1,2 l/m 0,0 km/h N-NO 26 0 min 0,025 mm 0,0 UV-I 0 W/m -2,6 C 3,3 C 0,0 km/h
29.11.2022 06:02 3,3 C 65 % 1018,7 hPa 0,8 l/m 0,0 km/h N-NO 26 0 min 0,025 mm 0,0 UV-I 0 W/m -2,6 C 3,3 C 0,0 km/h
29.11.2022 05:07 3,2 C 65 % 1018,5 hPa 0,8 l/m 0,0 km/h N-NO 26 0 min 0,025 mm 0,0 UV-I 0 W/m -2,7 C 3,2 C 0,0 km/h
29.11.2022 04:10 3,2 C 65 % 1018,4 hPa 0,4 l/m 0,0 km/h N-NO 26 0 min 0,001 mm 0,0 UV-I 0 W/m -2,7 C 3,2 C 0,0 km/h
29.11.2022 03:14 3,2 C 65 % 1018,3 hPa 0,4 l/m 0,0 km/h N-NO 26 0 min 0,025 mm 0,0 UV-I 0 W/m -2,7 C 3,2 C 0,0 km/h
29.11.2022 02:18 3,2 C 65 % 1018,4 hPa 0,6 l/m 0,0 km/h N-NO 26 0 min 0,026 mm 0,0 UV-I 0 W/m -2,7 C 3,2 C 0,0 km/h
29.11.2022 01:22 3,1 C 65 % 1018,6 hPa 0,4 l/m 0,0 km/h N-NO 26 0 min 0,025 mm 0,0 UV-I 0 W/m -2,8 C 3,1 C 0,0 km/h
29.11.2022 00:26 3,0 C 65 % 1018,6 hPa 0,2 l/m 0,0 km/h N-NO 26 0 min 0,000 mm 0,0 UV-I 0 W/m -2,9 C 3,0 C 0,0 km/h
28.11.2022 23:29 3,1 C 66 % 1018,8 hPa 0,0 l/m 0,0 km/h N-NO 26 0 min 0,025 mm 0,0 UV-I 0 W/m -2,6 C 3,1 C 0,0 km/h
28.11.2022 22:33 3,1 C 66 % 1018,9 hPa 0,0 l/m 0,0 km/h N-NO 26 0 min 0,025 mm 0,0 UV-I 0 W/m -2,6 C 3,1 C 0,0 km/h
28.11.2022 21:36 3,2 C 67 % 1019,0 hPa 0,2 l/m 0,0 km/h N-NO 26 0 min 0,026 mm 0,0 UV-I 0 W/m -2,3 C 3,2 C 0,0 km/h
28.11.2022 20:40 3,3 C 71 % 1018,8 hPa 0,2 l/m 0,0 km/h N-NO 26 0 min 0,003 mm 0,0 UV-I 0 W/m -1,4 C 3,3 C 0,0 km/h
28.11.2022 17:15 4,1 C 81 % 1018,9 hPa 0,0 l/m 0,0 km/h N 0 0 min 0,000 mm 0,0 UV-I 0 W/m 1,1 C 4,1 C 0,0 km/h
28.11.2022 12:40 3,2 C 81 % 1019,6 hPa 0,0 l/m 0,0 km/h N 0 0 min 0,025 mm 0,6 UV-I 93 W/m 0,3 C 3,2 C 0,0 km/h
28.11.2022 12:00 2,6 C 80 % 1019,6 hPa 0,0 l/m 0,0 km/h N 0 0 min 0,025 mm 0,6 UV-I 93 W/m -0,5 C 2,6 C 0,0 km/h
_ Min-Zeit 12:00 23:31 03:36 - 12:00 - - - - - - 00:13 12:00 12:00
Minimum _ 2,6 C 65 % 1018,2 hPa - 0,0 km/h - - - - - - -2,9 C 2,6 C 0,0 km/h
_ Max-Zeit 15:10 12:05 12:15 19:50 12:10 - - 12:00 21:00 12:00 11:48 15:35 15:10 12:10
Maximum _ 4,8 C 81 % 1019,7 hPa 0,2 l/m 1,6 km/h
NO
- - 0 min 0,026 mm 0,6 UV-I 124 W/m 1,8 C 4,8 C 4,8 km/h
NO
Durchschnitt _ 3,4 C 71 % 1019,0 hPa #8,4 l/m 0,0 km/h NO - #0 min. #0,229 mm 0,5 UV-I 49 W/m -1,4 C 3,4 C 0,0 km/h